Miscellaneous Local Product
Issued by NWS Hastings, NE

Home | Current Version | Previous Version | Text Only | Print | Product List | Glossary Off
Versions: 1 2 3 4 5 6 7 8 9 10 11 12 13 14 15 16 17 18 19 20 21 22 23 24 25 26 27 28 29 30 31 32 33 34 35 36 37 38 39 40 41 42 43 44 45 46 47 48 49 50

000
AXUS43 KGID 291202
MISGRI

GID CWA HOURLY WEATHER ROUNDUP
NATIONAL WEATHER SERVICE HASTINGS NE
700 AM CDT WED OCT 29 2014

NOTE: "FAIR" INDICATES FEW OR NO CLOUDS BELOW 12,000 FEET WITH NO
SIGNIFICANT WEATHER AND/OR OBSTRUCTIONS TO VISIBILITY.

...SOUTH CENTRAL NEBRASKA...

CITY           SKY/WX    TMP DP  RH WIND       PRES   REMARKS
GRAND ISLAND   CLEAR     29  24  82 W3        30.22S
HASTINGS       CLEAR     31  24  75 CALM      30.21S
KEARNEY        PTCLDY    27  19  74 W3        30.21S
ORD            CLEAR     22  18  85 CALM      30.19F
YORK           CLEAR     30  27  86 N3        30.22S
AURORA         CLEAR     28  25  87 CALM      30.22R
LEXINGTON      CLEAR     25  22  89 CALM      30.20S
HOLDREGE       CLEAR     28  22  78 CALM      30.20S
HEBRON         CLEAR     27  24  89 CALM      30.23S

...NEBRASKA PANHANDLE...

CITY           SKY/WX    TMP DP  RH WIND       PRES   REMARKS
CHADRON        PTCLDY    20  15  81 W3        30.10S
ALLIANCE       PTCLDY    19  16  88 W6        30.11F WCI  11
SCOTTSBLUFF    PTCLDY    25  32 100 NW3       30.13S
SIDNEY         PTCLDY    25  20  81 W9        30.14F WCI  15

...WESTERN AND NORTH CENTRAL NEBRASKA...

CITY           SKY/WX    TMP DP  RH WIND       PRES   REMARKS
VALENTINE      PTCLDY    19  16  88 W3        30.15F
AINSWORTH      PTCLDY    24  19  83 S5        30.15F WCI  18
ONEILL         CLEAR     26  25  94 CALM      30.19S
BROKEN BOW     MOCLDY    22  17  81 CALM      30.18F
IMPERIAL       PTCLDY    27  20  75 CALM      30.16F
NORTH PLATTE   CLEAR     21  17  84 E3        30.18F
MCCOOK         CLEAR     23  20  88 W5        30.20S WCI  17

...EASTERN NEBRASKA...

CITY           SKY/WX    TMP DP  RH WIND       PRES   REMARKS
NORFOLK        CLEAR     27  24  89 CALM      30.20S
SO SIOUX CITY  CLEAR     29  27  92 CALM      30.21R
TEKAMAH        CLEAR     35  29  78 W8        30.22R WCI  29
COLUMBUS       CLEAR     27  21  80 CALM      30.23S
ALBION         PTCLDY    25  22  88 N6        30.20S WCI  18
OMAHA EPPLEY   CLEAR     36  29  75 W5        30.23R WCI  32
MILLARD        CLEAR     35  31  88 CALM      30.22R
LINCOLN        CLEAR     30  26  85 CALM      30.24S
NEBRASKA CITY  CLEAR     35  29  78 NW6       30.23R WCI  30
BEATRICE       CLEAR     29  28  94 CALM      30.23R
FALLS CITY     CLEAR     33  30  88 N3        30.22S

...NORTHERN KANSAS...

CITY           SKY/WX    TMP DP  RH WIND       PRES   REMARKS
GOODLAND       CLEAR     29  23  78 W6        30.18S WCI  23
HILL CITY      CLEAR     29  23  78 CALM      30.21S
PHILLIPSBURG   CLEAR     30  27  86 NW5       30.22S WCI  25
SMITH CENTER   CLEAR     30  25  80 NE3       30.22S
BELOIT         CLEAR     30  28  93 N3        30.22F
HAYS           CLEAR     34  25  69 CALM      30.21S
RUSSELL        CLEAR     39  27  62 S5        30.20S
CONCORDIA      CLEAR     32  29  88 CALM      30.23S
SALINA         CLEAR     38  30  73 CALM      30.23S
TOPEKA         CLEAR     37  35  92 CALM      30.24R



USA.gov is the U.S. government's official web portal to all federal, state and local government web resources and services.